Regional Weather Roundup
Issued by NWS

Home | Current Version | Previous Version | Graphics & Text | Print | Product List | Glossary On
Versions: 1 2 3 4 5 6 7 8 9 10 11 12 13 14 15 16 17 18 19 20 21 22 23 24 25 26 27 28 29 30 31 32 33 34 35 36 37 38 39 40 41 42 43 44 45 46 47 48 49 50
000
ASUS44 KMEG 281310
RWRTN
TENNESSEE HOURLY STATE WEATHER ROUNDUP
NATIONAL WEATHER SERVICE MEMPHIS TN
800 AM CDT SAT MAY 28 2016

TNZ002-004-019-021-049-052-054-088>092-281400-
WEST TENNESSEE

CITY           SKY/WX    TMP DP  RH WIND       PRES   REMARKS
MEMPHIS INTL   PTSUNNY   73  67  81 S9        29.99R
NWS MEMPHIS      N/A     70 N/A N/A MISG        N/A
JACKSON        CLOUDY    72  65  78 S8        30.00S
DYERSBURG      CLOUDY    72  64  78 S7        29.98S
UNION CITY     MOSUNNY   72  66  83 SE10      29.98S
PARIS          PTSUNNY   70  64  83 SE7       30.03R
LEXINGTON      SUNNY     73  66  78 S3        30.03R
$$

TNZ008-025-027-028-033-062-065-066-281400-
NORTH MIDDLE TENNESSEE

CITY           SKY/WX    TMP DP  RH WIND       PRES   REMARKS
NASHVILLE      CLOUDY    74  63  68 S7        30.08R
CLARKSVILLE    CLOUDY    73  66  78 S6        30.04R
SMYRNA         LGT RAIN  73  65  76 S7        30.09R
COOKEVILLE     MOSUNNY   73  63  68 S5        30.11R
CROSSVILLE     MOSUNNY   72  60  66 S8        30.17R
$$

TNZ061-075-076-078-094-096-097-281400-
SOUTH MIDDLE TENNESSEE

CITY           SKY/WX    TMP DP  RH WIND       PRES   REMARKS
FAYETTEVILLE   MOSUNNY   72  61  68 S7        30.11R
TULLAHOMA      SUNNY     70  66  88 SE5       30.13R
WINCHESTER     SUNNY     70  61  73 SE7       30.12R
MCMINNVILLE    SUNNY     73  63  68 CALM      30.12R
COLUMBIA       MOSUNNY   72  72 100 VRB3      30.06R
SHELBYVILLE    PTSUNNY   73  64  73 CALM      30.11R
$$

TNZ017-018-042-046-047-281400-
NORTHEAST TENNESSEE

CITY           SKY/WX    TMP DP  RH WIND       PRES   REMARKS
TRI CITIES     SUNNY     68  64  87 NE3       30.18R
$$

TNZ012-013-036-069-073-074-281400-
CENTRAL EAST TENNESSEE

CITY           SKY/WX    TMP DP  RH WIND       PRES   REMARKS
KNOXVILLE      FOG       66  66 100 CALM      30.14R VSB 1/4
OAK RIDGE      CLOUDY    69  65  86 CALM      30.17R
GATLINBURG     SUNNY     66  63  88 CALM      30.14S
$$

TNZ083-085-099-281400-
SOUTHEAST TENNESSEE

CITY           SKY/WX    TMP DP  RH WIND       PRES   REMARKS
CHATTANOOGA    CLOUDY    74  61  63 S8        30.14R
$$

SKY/WX REPORTED AS FAIR MEANS FEW OR NO CLOUDS BELOW
12 THOUSAND FEET.




USA.gov is the U.S. government's official web portal to all federal, state and local government web resources and services.